Custer, SD

11:04 AM MDT on July 21, 2017 (GMT -0600)
Custer County

Weather History for KCUT - October, 2010

Change the Weather History Date:

Sunday, October 3, 2010

  Actual Average Record
Temperature  
Mean Temperature 54 °F 47 °F  
Max Temperature 74 °F 59 °F 80 °F (1981)
Min Temperature 34 °F 34 °F 19 °F (1968)
Degree Days  
Heating Degree Days 11 18  
Month to date heating degree days 40 54  
Since 1 July heating degree days 464 540  
Cooling Degree Days 0 0  
Month to date cooling degree days 0 0  
Year to date cooling degree days 179 177  
Growing Degree Days 4 (Base 50)    
Moisture  
Dew Point 35 °F    
Average Humidity 55    
Maximum Humidity 89    
Minimum Humidity 20    
Precipitation  
Precipitation 0.00 in 0.07 in 0.78 in (1983)
Month to date precipitation 0.00 0.21  
Year to date precipitation 18.63 16.70  
Sea Level Pressure  
Sea Level Pressure 30.05 in    
Wind  
Wind Speed 3 mph (SW)    
Max Wind Speed 10 mph    
Max Gust Speed 14 mph    
Visibility 10 miles    
Events      
T = Trace of Precipitation, MM = Missing Value Source: NWS Daily Summary

Daily Weather History Graph

Daily Weather History Graph

Search for Another Location

Airport or City:

Trip Planner

Search our weather history database for the weather conditions in past years. The results will help you decide how hot, cold, wet, or windy it might be!

Date:

Astronomy

Oct. 03, 2010 Rise Set
Actual Time 6:54 AM MDT 6:31 PM MDT
Civil Twilight 6:25 AM MDT 7:00 PM MDT
Nautical Twilight 5:52 AM MDT 7:33 PM MDT
Astronomical Twilight 5:18 AM MDT 8:07 PM MDT
Moon 1:43 AM MDT (10/3) 4:05 PM MDT (10/3)
Length of Visible Light 12h 34m
Length of Day
11h 37m
Waning Crescent, 22% of the Moon is Illuminated
Oct 3
Waning Crescent
Oct 7
New
Oct 14
First Quarter
Oct 22
Full
Oct 30
Last Quarter

Hourly Weather History & Observations

Time (MDT) Temp. Windchill Dew Point Humidity Pressure Visibility Wind Dir Wind Speed Gust Speed Precip Events Conditions
12:53 AM 39.9 °F 36.7 °F 30.0 °F 68% 30.17 in 10.0 mi West 4.6 mph - N/A   Clear
1:53 AM 41.0 °F 39.0 °F 32.0 °F 70% 30.14 in 10.0 mi West 3.5 mph - N/A   Clear
2:53 AM 39.9 °F - 32.0 °F 73% 30.13 in 10.0 mi Calm Calm - N/A   Clear
3:53 AM 39.0 °F 36.8 °F 32.0 °F 76% 30.12 in 10.0 mi West 3.5 mph - N/A   Clear
4:53 AM 39.9 °F 37.8 °F 32.0 °F 73% 30.11 in 10.0 mi WSW 3.5 mph - N/A   Clear
5:53 AM 37.0 °F - 32.0 °F 82% 30.12 in 10.0 mi Calm Calm - N/A   Clear
6:53 AM 34.0 °F 31.0 °F 30.9 °F 89% 30.14 in 10.0 mi WNW 3.5 mph - N/A   Clear
7:53 AM 41.0 °F 39.0 °F 35.1 °F 79% 30.12 in 10.0 mi West 3.5 mph - N/A   Clear
8:53 AM 55.0 °F - 39.0 °F 55% 30.06 in 10.0 mi Calm Calm - N/A   Clear
9:53 AM 62.1 °F - 39.0 °F 43% 30.04 in 10.0 mi SW 5.8 mph - N/A   Clear
10:53 AM 68.0 °F - 39.9 °F 36% 30.02 in 10.0 mi Calm Calm - N/A   Clear
11:53 AM 72.0 °F - 36.0 °F 27% 30.01 in 10.0 mi SE 3.5 mph - N/A   Clear
12:53 PM 73.9 °F - 36.0 °F 25% 29.99 in 10.0 mi Variable 5.8 mph - N/A   Clear
1:53 PM 73.0 °F - 34.0 °F 24% 29.98 in 10.0 mi South 10.4 mph - N/A   Clear
2:53 PM 73.0 °F - 30.9 °F 21% 29.97 in 10.0 mi Variable 5.8 mph - N/A   Clear
3:53 PM 72.0 °F - 34.0 °F 25% 29.97 in 10.0 mi South 6.9 mph - N/A   Clear
4:53 PM 70.0 °F - 36.0 °F 29% 29.98 in 10.0 mi South 8.1 mph - N/A   Clear
5:53 PM 64.9 °F - 37.9 °F 37% 30.01 in 10.0 mi South 5.8 mph - N/A   Clear
6:53 PM 61.0 °F - 36.0 °F 39% 30.04 in 10.0 mi Calm Calm - N/A   Clear
7:53 PM 55.0 °F - 36.0 °F 49% 30.04 in 10.0 mi Calm Calm - N/A   Clear
8:53 PM 50.0 °F - 36.0 °F 59% 30.01 in 10.0 mi Calm Calm - N/A   Clear
9:53 PM 46.0 °F 44.8 °F 36.0 °F 68% 30.01 in 10.0 mi West 3.5 mph - N/A   Clear
10:53 PM 46.9 °F - 36.0 °F 66% 29.98 in 10.0 mi WNW 3.5 mph - N/A   Clear
11:53 PM 46.0 °F 44.8 °F 37.0 °F 71% 29.96 in 10.0 mi West 3.5 mph - N/A   Clear